Weather in Zarayskoye

Russia / Ivanovo Oblast     56°58′45″N   42°56′30″E
temp.,
°C
wind,
m/s
gust,
m/s
humid.,
%
clouds,
%
prec.,
mm/h
press.,
hPa
HPBL,
m
22 may, sun
sun2200:00+2nne357067 0.0 1009121
03:000ne47815 0.0 1008165
06:00+2nne56715 0.0 1007591
09:00+4n565744 0.0 10061179
12:00+4nne665798 0.0 10051415
15:00+5n565597 0.0 10051573
18:00+4n575899 0.1 10051322
21:00+2nnw4871100 0.1 1004391
23 may, mon
mon2300:000nw48845 0.0 1003248
03:00−2nw489317 0.0 1003218
06:000nw5780100 0.0 1002460
09:00+3nw6769100 0.1 10011081
12:00+4wnw6973100 0.3 10001197
15:00+5nw7973100 0.6 10001128
18:00+3nw71178100 0.3 10001117
21:00+2wnw61095100 0.6 1000729
24 may, tue
tue2400:00+1w51099100 1.0 999373
03:00+1nnw579799 1.9 1000583
06:00+1nw5792100 0.1 1001527
09:00+3nw5679100 0.3 10021049
12:00+5nnw457197 0.4 10051274
15:00+6nnw456882 0.8 1006991
18:00+6nw4575100 0.4 1007857
21:00+3nw489360 0.7 1009201
25 may, wed
wed2500:00+1nw479613 0.0 1010175
03:000wnw479770 0.0 1011148
06:00+2wnw5893100 0.0 1011284
09:00+5wnw6889100 0.0 1012698
12:00+8wnw6872100 0.1 10111188
15:00+6n5992100 1.3 1012926
18:00+6nw489394 0.4 1013669
21:00+5nw239392 0.5 1013123
26 may, thu
thu2600:00+5w349285 0.2 1012126
03:00+2w359443 0.2 101286
06:00+5w4593100 0.2 1011627
09:00+4w3397100 1.1 1010601
12:00+5wsw3392100 0.2 1009689
15:00+8w337968 0.3 1007768
18:00+9ene116983 0.0 1005505
21:00+5se3487100 0.0 100372